Overview Statistics Trail Chart Weather Telemetry Raw packets
 

This is the latest recevied weather packets stored in our database for station/object DL3NDS-WX. If no packets are shown the sender has not sent any weather packets the latest 10 day(s).

<< 512 513 514 515 516 517 518 >>
Time Temp. Humidity Pressure Rain* Wind** Luminosity Snow
1787931433 19.44° C 87% 1015.1 hPa 1.27 mm - 135 W/m² -
1787931373 19.44° C 87% 1015 hPa 1.02 mm - 120 W/m² -
1787931311 19.44° C 87% 1014.8 hPa 1.02 mm - 114 W/m² -
1787931250 19.44° C 87% 1014.8 hPa 1.02 mm - 111 W/m² -
1787931188 19.44° C 87% 1014.7 hPa 1.02 mm - 111 W/m² -
1787931126 19.44° C 87% 1014.7 hPa 1.02 mm - 111 W/m² -
1787931067 19.44° C 86% 1014.7 hPa 0.76 mm - 111 W/m² -
1787930996 19.44° C 86% 1014.6 hPa 0.76 mm - 111 W/m² -
1787930934 19.44° C 86% 1014.6 hPa 0.76 mm - 107 W/m² -
1787930877 19.44° C 87% 1014.7 hPa 0.76 mm - 105 W/m² -
1787930821 20° C 87% 1014.6 hPa 0.51 mm - 105 W/m² -
1787930754 20° C 86% 1014.7 hPa 0.51 mm - 105 W/m² -
1787930693 20° C 87% 1014.6 hPa 0.51 mm - 104 W/m² -
1787930632 20° C 86% 1014.6 hPa 0.51 mm - 95 W/m² -
1787930572 20° C 86% 1014.7 hPa 0.51 mm - 86 W/m² -
1787930510 20° C 86% 1014.5 hPa 0.51 mm - 77 W/m² -
1787930450 20° C 85% 1014.5 hPa 0.51 mm - 72 W/m² -
1787930388 20° C 85% 1014.6 hPa 0.51 mm - 69 W/m² -
1787930326 20° C 85% 1014.7 hPa 0.25 mm - 69 W/m² -
1787930263 20° C 85% 1014.7 hPa 0.25 mm - 72 W/m² -
1787930202 20° C 85% 1014.8 hPa 0.25 mm - 77 W/m² -
1787930143 20° C 84% 1014.9 hPa 0.25 mm - 86 W/m² -
1787930080 20° C 84% 1014.9 hPa 0.25 mm - 95 W/m² -
1787930031 20° C 83% 1014.8 hPa 0.25 mm - 105 W/m² -
1787929998 20° C 83% 1014.9 hPa 0.25 mm - 97 W/m² -

* Rain latest hour (hover to see other rain measurements)
** Current wind speed in m/s (hover to see current wind gust speed)